Renton, WA
on Tuesday, November 20, 2012

Tuesday
Previous Day Next Day
Daily Summary
 ActualAverage (KSEA)Record (KSEA)
Temperature
Mean Temperature °F 44°F  
Max Temperature 54°F 50°F 64°F (1987)
Min Temperature 46°F 39°F 25°F (1985)
Degree Days
Heating Degree Days 15 21  
Month to date heating degree days 369  
Since 1 July heating degree days 966  
Cooling Degree Days 0 0  
Month to date cooling degree days 0  
Year to date cooling degree days 189  
Moisture
Dew Point 43°F   
Average Humidity 80    
Maximum Humidity 90    
Minimum Humidity 66    
Precipitation
Precipitation 0.20 in 0.23 in 3.41 in (1959)
Month to date precipitation 4.35  
Year to date precipitation 29.92  
Snow
Snow 0.00 in in 5.20 in (1960)
Month to date snowfall  
Since 1 July snowfall  
Snow Depth in   
Wind
Wind Speed 3 mph   
Max Wind Speed 10 mph   
Max Gust Speed 22 mph   
Visibility 9 miles   
Events Rain   

Key: T is trace of precipitation, MM is missing value
Source: NWS Daily Summary
Time(PST)TemperatureDew PointHumidity Pressure Visibility Wind DirectionWind SpeedGust SpeedPrecipitationEvents Conditions
12:53 AM 48.9°F 45.0°F 86% 29.71 in 10.0 miles Calm Calm - N/A   Scattered Clouds
1:53 AM 48.9°F 45.0°F 86% 29.70 in 10.0 miles SE 3.5 mph - N/A   Clear
2:53 AM 48.9°F 44.1°F 83% 29.70 in 10.0 miles SSE 3.5 mph - N/A   Mostly Cloudy
3:53 AM 48.0°F 45.0°F 89% 29.70 in 10.0 miles Calm Calm - N/A   Overcast
4:53 AM 46.9°F 44.1°F 90% 29.67 in 10.0 miles Calm Calm - N/A   Mostly Cloudy
5:53 AM 46.9°F 43.0°F 86% 29.68 in 10.0 miles SSE 3.5 mph - N/A   Clear
6:53 AM 48.0°F 43.0°F 83% 29.65 in 10.0 miles SSE 5.8 mph - N/A   Overcast
7:53 AM 46.9°F 41.0°F 80% 29.62 in 10.0 miles SSE 3.5 mph - N/A   Clear
8:53 AM 48.0°F 42.1°F 80% 29.59 in 10.0 miles SSE 3.5 mph - N/A   Clear
9:53 AM 48.9°F 44.1°F 83% 29.56 in 10.0 miles Calm Calm - N/A   Overcast
10:53 AM 48.9°F 44.1°F 83% 29.58 in 4.0 miles Calm Calm - 0.04 in Rain Rain
11:08 AM 48.2°F 44.6°F 87% 29.57 in 2.5 miles Variable 3.5 mph - 0.04 in Rain Rain
11:10 AM 48.2°F 44.6°F 87% 29.57 in 3.0 miles Calm Calm - 0.05 in Rain Light Rain
11:53 AM 50.0°F 45.0°F 83% 29.57 in 10.0 miles Calm Calm - 0.10 in Rain Light Rain
12:53 PM 51.1°F 46.0°F 83% 29.57 in 10.0 miles ESE 5.8 mph - 0.01 in   Overcast
1:53 PM 54.0°F 45.0°F 72% 29.60 in 10.0 miles SSE 8.1 mph 21.9 mph 0.01 in   Scattered Clouds
2:53 PM 53.1°F 45.0°F 74% 29.65 in 10.0 miles SSE 9.2 mph - 0.04 in   Scattered Clouds
3:53 PM 54.0°F 43.0°F 66% 29.68 in 10.0 miles SSE 10.4 mph 19.6 mph N/A   Overcast
4:53 PM 51.1°F 43.0°F 74% 29.68 in 10.0 miles ESE 5.8 mph - N/A   Partly Cloudy
5:53 PM 51.1°F 42.1°F 71% 29.67 in 10.0 miles Variable 6.9 mph - N/A   Partly Cloudy
6:53 PM 50.0°F 41.0°F 71% 29.67 in 10.0 miles SE 4.6 mph - N/A   Mostly Cloudy
7:53 PM 50.0°F 41.0°F 71% 29.69 in 10.0 miles Calm Calm - 0.00 in   Overcast
8:53 PM 48.0°F 41.0°F 77% 29.68 in 10.0 miles ESE 3.5 mph - N/A   Scattered Clouds
9:53 PM 48.0°F 39.9°F 74% 29.66 in 10.0 miles East 4.6 mph - N/A   Partly Cloudy
10:53 PM 46.0°F 39.9°F 79% 29.62 in 10.0 miles Calm Calm - N/A   Scattered Clouds
11:53 PM 46.9°F 39.0°F 74% 29.59 in 10.0 miles Calm Calm - N/A   Mostly Cloudy
Moon Phase
Nov. 20 Nov. 28 Dec. 06 Dec. 13 Dec. 20
Sunrise:07:21 AM (PST) Moon Rise:12:43 PM (PST)11/20
Sunset:04:27 PM (PST) Moon Set:No Moon Set/

Copyright © 2014 The Weather Underground, Inc.